User: anonymous   Login
Location: Penticton
(49.5000°N, 119.5830°W)
Time: 16:12:26
(UTC-08:00)
Language:

NOSS 3-4 (A) - Orbit

View from above orbital plane
View from above orbital plane
View from above satellite
View from above satellite

Ground track
Ground track

The orbit data is extracted from the following two-line orbital elements,

1 31701U 07027A   16034.80824654 0.00000000  00000-0  00000-0 0    02
2 31701  63.4069 276.2430 0149000  28.3362 331.6638 13.40700667    08
Epoch (UTC): 03 February 2016 19:23:52
Eccentricity: 0.0149000
inclination: 63.4069°
perigee height: 995 km
apogee height: 1218 km
right ascension of ascending node: 276.2430°
argument of perigee: 28.3362°
revolutions per day: 13.40700667
mean anomaly at epoch: 331.6638°
orbit number at epoch: 0

The dashed part of the orbit path shows where the satellite is in the earth's shadow,  

DLR